Location: *
(32.8667°N, 13.1833°E)
Time: 09:59:18
(UTC+00:00)

Cosmos 1992 Rocket - Pass Details

Date: 18 July 2019
Orbit: 758 x 766 km, 74.0° (Epoch: 20 August)

Event Time Altitude Azimuth Distance (km) Brightness Sun altitude
Rises 20:16:52 0° 342° (NNW) 3,236 8.3 -21.6°
Reaches altitude 10° 20:19:14 10° 342° (NNW) 2,307 7.4 -22.0°
Maximum altitude 20:24:29 84° 256° (WSW) 775 3.9 -22.7°
Enters shadow 20:25:47 52° 173° (S) 944 4.1 -22.9°
